Time,TemperatureF,DewpointF,PressureIn,WindDirection,WindDirectionDegrees,WindSpeedMPH,WindSpeedGustMPH,Humidity,HourlyPrecipIn,Conditions,Clouds,dailyrainin,SoftwareType,DateUTC
2013-05-25 00:02:00,50.9,48.4,30.29,NNE,27,11.0,12.0,91,0.00,,,0.00,Wunderground v.1.15,2013-05-25 05:02:00,
2013-05-25 00:08:00,50.8,48.3,30.29,NNE,28,13.0,13.0,91,0.00,,,0.00,Wunderground v.1.15,2013-05-25 05:08:00,
2013-05-25 00:14:00,50.8,48.3,30.29,NNE,28,13.0,13.0,91,0.00,,,0.00,Wunderground v.1.15,2013-05-25 05:14:00,
2013-05-25 00:20:00,50.8,48.0,30.28,NNE,31,13.0,13.0,90,0.00,,,0.00,Wunderground v.1.15,2013-05-25 05:20:00,
2013-05-25 00:25:00,50.9,48.1,30.28,NNE,32,13.0,14.0,90,0.00,,,0.00,Wunderground v.1.15,2013-05-25 05:25:00,
2013-05-25 00:31:00,50.9,47.8,30.28,NNE,32,13.0,14.0,89,0.00,,,0.00,Wunderground v.1.15,2013-05-25 05:31:00,
2013-05-25 00:37:00,51.0,47.9,30.28,NE,35,13.0,14.0,89,0.00,,,0.00,Wunderground v.1.15,2013-05-25 05:37:00,
2013-05-25 00:43:00,51.2,48.4,30.27,NNE,33,12.0,13.0,90,0.00,,,0.00,Wunderground v.1.15,2013-05-25 05:43:00,
2013-05-25 00:49:00,51.2,48.7,30.27,NE,36,13.0,14.0,91,0.00,,,0.00,Wunderground v.1.15,2013-05-25 05:49:00,
2013-05-25 00:55:00,51.1,48.3,30.27,NE,36,13.0,13.0,90,0.00,,,0.00,Wunderground v.1.15,2013-05-25 05:55:00,
2013-05-25 01:00:00,51.0,48.2,30.27,NE,40,12.0,12.0,90,0.00,,,0.00,Wunderground v.1.15,2013-05-25 06:00:00,
2013-05-25 01:05:00,51.0,48.2,30.26,NE,40,12.0,13.0,90,0.00,,,0.00,Wunderground v.1.15,2013-05-25 06:05:00,
2013-05-25 01:11:00,50.8,48.0,30.26,NE,40,13.0,14.0,90,0.00,,,0.00,Wunderground v.1.15,2013-05-25 06:11:00,
2013-05-25 01:17:00,50.7,47.9,30.26,NE,42,13.0,14.0,90,0.00,,,0.00,Wunderground v.1.15,2013-05-25 06:17:00,
2013-05-25 01:23:00,50.7,47.9,30.27,NE,46,12.0,13.0,90,0.00,,,0.00,Wunderground v.1.15,2013-05-25 06:23:00,
2013-05-25 01:29:00,50.6,47.8,30.26,NE,45,12.0,13.0,90,0.00,,,0.00,Wunderground v.1.15,2013-05-25 06:29:00,
2013-05-25 01:34:00,50.6,48.1,30.26,NE,45,11.0,12.0,91,0.00,,,0.00,Wunderground v.1.15,2013-05-25 06:34:00,
2013-05-25 01:40:00,50.5,48.0,30.26,NE,44,10.0,11.0,91,0.00,,,0.00,Wunderground v.1.15,2013-05-25 06:40:00,
2013-05-25 01:46:00,50.5,48.0,30.26,NE,43,11.0,11.0,91,0.00,,,0.00,Wunderground v.1.15,2013-05-25 06:46:00,
2013-05-25 01:51:00,50.4,47.9,30.26,NE,42,10.0,11.0,91,0.00,,,0.00,Wunderground v.1.15,2013-05-25 06:51:00,
2013-05-25 01:57:00,50.3,47.8,30.26,NE,42,10.0,11.0,91,0.00,,,0.00,Wunderground v.1.15,2013-05-25 06:57:00,
2013-05-25 02:02:00,50.2,47.7,30.27,NE,43,10.0,11.0,91,0.00,,,0.00,Wunderground v.1.15,2013-05-25 07:02:00,
2013-05-25 02:07:00,50.0,47.5,30.26,NE,45,12.0,12.0,91,0.00,,,0.00,Wunderground v.1.15,2013-05-25 07:07:00,
2013-05-25 02:12:00,49.9,47.4,30.27,NE,45,11.0,12.0,91,0.00,,,0.00,Wunderground v.1.15,2013-05-25 07:12:00,
2013-05-25 02:17:00,49.8,47.3,30.27,NE,46,11.0,12.0,91,0.00,,,0.00,Wunderground v.1.15,2013-05-25 07:17:00,
2013-05-25 02:22:00,49.7,47.2,30.27,NE,46,11.0,12.0,91,0.00,,,0.00,Wunderground v.1.15,2013-05-25 07:22:00,
2013-05-25 02:27:00,49.6,47.1,30.27,NE,45,11.0,12.0,91,0.00,,,0.00,Wunderground v.1.15,2013-05-25 07:27:00,
2013-05-25 02:32:00,49.5,47.0,30.27,NE,46,11.0,12.0,91,0.00,,,0.00,Wunderground v.1.15,2013-05-25 07:32:00,
2013-05-25 02:37:00,49.4,46.9,30.26,West,279,10.0,12.0,91,0.00,,,0.00,Wunderground v.1.15,2013-05-25 07:37:00,
2013-05-25 02:42:00,49.3,46.8,30.27,West,279,10.0,11.0,91,0.00,,,0.00,Wunderground v.1.15,2013-05-25 07:42:00,
2013-05-25 02:47:00,49.1,46.6,30.26,NE,50,11.0,12.0,91,0.00,,,0.00,Wunderground v.1.15,2013-05-25 07:47:00,
2013-05-25 02:52:00,49.0,46.5,30.27,NE,51,11.0,12.0,91,0.00,,,0.00,Wunderground v.1.15,2013-05-25 07:52:00,
2013-05-25 02:57:00,48.9,46.7,30.27,NE,49,11.0,12.0,92,0.00,,,0.00,Wunderground v.1.15,2013-05-25 07:57:00,
2013-05-25 03:02:00,48.8,46.6,30.27,NE,48,10.0,11.0,92,0.00,,,0.00,Wunderground v.1.15,2013-05-25 08:02:00,
2013-05-25 03:07:00,48.7,46.5,30.26,NE,47,11.0,11.0,92,0.00,,,0.00,Wunderground v.1.15,2013-05-25 08:07:00,
2013-05-25 03:12:00,48.7,46.5,30.26,NE,45,10.0,10.0,92,0.00,,,0.00,Wunderground v.1.15,2013-05-25 08:12:00,
2013-05-25 03:17:00,48.6,46.4,30.27,West,279,9.0,10.0,92,0.00,,,0.00,Wunderground v.1.15,2013-05-25 08:17:00,
2013-05-25 03:22:00,48.5,46.3,30.27,NE,47,10.0,10.0,92,0.00,,,0.00,Wunderground v.1.15,2013-05-25 08:22:00,
2013-05-25 03:27:00,48.4,46.2,30.27,NE,47,11.0,11.0,92,0.00,,,0.00,Wunderground v.1.15,2013-05-25 08:27:00,
2013-05-25 03:32:00,48.3,46.1,30.28,NE,47,11.0,11.0,92,0.00,,,0.00,Wunderground v.1.15,2013-05-25 08:32:00,
2013-05-25 03:37:00,48.3,46.1,30.27,NE,47,11.0,11.0,92,0.00,,,0.00,Wunderground v.1.15,2013-05-25 08:37:00,
2013-05-25 03:42:00,48.2,46.0,30.27,NE,51,11.0,12.0,92,0.00,,,0.00,Wunderground v.1.15,2013-05-25 08:42:00,
2013-05-25 03:47:00,48.2,46.3,30.27,NE,52,12.0,13.0,93,0.00,,,0.00,Wunderground v.1.15,2013-05-25 08:47:00,
2013-05-25 03:52:00,48.2,46.3,30.27,NE,51,12.0,13.0,93,0.00,,,0.00,Wunderground v.1.15,2013-05-25 08:52:00,
2013-05-25 03:57:00,48.2,46.3,30.27,West,279,13.0,14.0,93,0.00,,,0.00,Wunderground v.1.15,2013-05-25 08:57:00,
2013-05-25 04:02:00,48.2,46.3,30.27,West,279,13.0,14.0,93,0.00,,,0.00,Wunderground v.1.15,2013-05-25 09:02:00,
2013-05-25 04:07:00,48.3,46.4,30.27,ENE,59,13.0,14.0,93,0.00,,,0.00,Wunderground v.1.15,2013-05-25 09:07:00,
2013-05-25 04:12:00,48.3,46.4,30.27,NE,55,12.0,13.0,93,0.00,,,0.00,Wunderground v.1.15,2013-05-25 09:12:00,
2013-05-25 04:17:00,48.3,46.4,30.27,ENE,58,13.0,14.0,93,0.00,,,0.00,Wunderground v.1.15,2013-05-25 09:17:00,
2013-05-25 04:22:00,48.2,46.3,30.27,West,279,13.0,14.0,93,0.00,,,0.00,Wunderground v.1.15,2013-05-25 09:22:00,
2013-05-25 04:27:00,48.1,46.2,30.27,ENE,57,12.0,14.0,93,0.00,,,0.00,Wunderground v.1.15,2013-05-25 09:27:00,
2013-05-25 04:32:00,48.1,46.2,30.27,ENE,59,13.0,14.0,93,0.00,,,0.00,Wunderground v.1.15,2013-05-25 09:32:00,
2013-05-25 04:37:00,48.0,46.1,30.27,NE,56,13.0,14.0,93,0.00,,,0.00,Wunderground v.1.15,2013-05-25 09:37:00,
2013-05-25 04:42:00,47.9,46.0,30.26,NE,53,14.0,14.0,93,0.00,,,0.00,Wunderground v.1.15,2013-05-25 09:42:00,
2013-05-25 04:47:00,47.8,45.9,30.26,West,279,15.0,15.0,93,0.00,,,0.00,Wunderground v.1.15,2013-05-25 09:47:00,
2013-05-25 04:52:00,47.7,45.8,30.26,NE,53,14.0,15.0,93,0.00,,,0.00,Wunderground v.1.15,2013-05-25 09:52:00,
2013-05-25 04:57:00,47.7,45.8,30.25,NE,56,14.0,15.0,93,0.00,,,0.00,Wunderground v.1.15,2013-05-25 09:57:00,
2013-05-25 05:02:00,47.7,45.8,30.25,ENE,60,15.0,16.0,93,0.00,,,0.00,Wunderground v.1.15,2013-05-25 10:02:00,
2013-05-25 05:07:00,47.7,46.1,30.25,West,279,14.0,16.0,94,0.00,,,0.00,Wunderground v.1.15,2013-05-25 10:07:00,
2013-05-25 05:12:00,47.7,46.1,30.25,ENE,65,14.0,15.0,94,0.00,,,0.00,Wunderground v.1.15,2013-05-25 10:12:00,
2013-05-25 05:17:00,47.6,46.0,30.25,ENE,66,13.0,15.0,94,0.00,,,0.00,Wunderground v.1.15,2013-05-25 10:17:00,
2013-05-25 05:22:00,47.6,45.7,30.26,ENE,68,12.0,14.0,93,0.00,,,0.00,Wunderground v.1.15,2013-05-25 10:22:00,
2013-05-25 05:27:00,47.6,45.7,30.26,West,279,12.0,14.0,93,0.00,,,0.00,Wunderground v.1.15,2013-05-25 10:27:00,
2013-05-25 05:33:00,47.5,45.6,30.26,ENE,67,13.0,14.0,93,0.00,,,0.00,Wunderground v.1.15,2013-05-25 10:33:00,
2013-05-25 05:38:00,47.5,45.9,30.26,ENE,73,11.0,14.0,94,0.00,,,0.00,Wunderground v.1.15,2013-05-25 10:38:00,
2013-05-25 05:43:00,47.4,45.5,30.26,ENE,73,11.0,13.0,93,0.00,,,0.00,Wunderground v.1.15,2013-05-25 10:43:00,
2013-05-25 05:48:00,47.4,45.8,30.27,ENE,70,10.0,13.0,94,0.00,,,0.00,Wunderground v.1.15,2013-05-25 10:48:00,
2013-05-25 05:53:00,47.4,45.8,30.28,ENE,74,10.0,11.0,94,0.00,,,0.00,Wunderground v.1.15,2013-05-25 10:53:00,
2013-05-25 05:58:00,47.3,45.7,30.28,ENE,73,9.0,11.0,94,0.00,,,0.00,Wunderground v.1.15,2013-05-25 10:58:00,
2013-05-25 06:03:00,47.3,45.7,30.28,ENE,69,10.0,10.0,94,0.00,,,0.00,Wunderground v.1.15,2013-05-25 11:03:00,
2013-05-25 06:08:00,47.3,45.7,30.29,ENE,77,7.0,10.0,94,0.00,,,0.00,Wunderground v.1.15,2013-05-25 11:08:00,
2013-05-25 06:13:00,47.3,45.7,30.29,West,279,5.0,9.0,94,0.00,,,0.00,Wunderground v.1.15,2013-05-25 11:13:00,
2013-05-25 06:18:00,47.3,45.7,30.29,East,82,5.0,9.0,94,0.00,,,0.00,Wunderground v.1.15,2013-05-25 11:18:00,
2013-05-25 06:23:00,47.3,45.7,30.30,ENE,74,6.0,6.0,94,0.00,,,0.00,Wunderground v.1.15,2013-05-25 11:23:00,
2013-05-25 06:28:00,47.3,45.7,30.30,ENE,77,6.0,7.0,94,0.00,,,0.00,Wunderground v.1.15,2013-05-25 11:28:00,
2013-05-25 06:33:00,47.4,45.8,30.30,East,83,2.0,6.0,94,0.00,,,0.00,Wunderground v.1.15,2013-05-25 11:33:00,
2013-05-25 06:38:00,47.6,46.0,30.31,East,84,0.0,6.0,94,0.00,,,0.00,Wunderground v.1.15,2013-05-25 11:38:00,
2013-05-25 06:43:00,47.7,46.1,30.31,East,84,1.0,2.0,94,0.00,,,0.00,Wunderground v.1.15,2013-05-25 11:43:00,
2013-05-25 06:48:00,48.0,46.6,30.31,East,83,1.0,3.0,95,0.00,,,0.00,Wunderground v.1.15,2013-05-25 11:48:00,
2013-05-25 06:53:00,48.3,46.9,30.30,East,87,0.0,3.0,95,0.00,,,0.00,Wunderground v.1.15,2013-05-25 11:53:00,
2013-05-25 06:58:00,48.7,47.3,30.31,East,84,4.0,4.0,95,0.00,,,0.00,Wunderground v.1.15,2013-05-25 11:58:00,
2013-05-25 07:03:00,49.2,47.8,30.32,East,84,2.0,6.0,95,0.00,,,0.00,Wunderground v.1.15,2013-05-25 12:03:00,
2013-05-25 07:08:00,49.8,48.4,30.31,East,80,1.0,6.0,95,0.00,,,0.00,Wunderground v.1.15,2013-05-25 12:08:00,
2013-05-25 07:13:00,50.3,49.2,30.30,East,82,0.0,3.0,96,0.00,,,0.00,Wunderground v.1.15,2013-05-25 12:13:00,
2013-05-25 07:18:00,50.9,49.8,30.31,East,80,0.0,3.0,96,0.00,,,0.00,Wunderground v.1.15,2013-05-25 12:18:00,
2013-05-25 07:23:00,51.6,50.5,30.31,East,80,1.0,2.0,96,0.00,,,0.00,Wunderground v.1.15,2013-05-25 12:23:00,
2013-05-25 07:28:00,52.4,51.3,30.31,ENE,73,3.0,6.0,96,0.00,,,0.00,Wunderground v.1.15,2013-05-25 12:28:00,
2013-05-25 07:33:00,53.3,52.2,30.32,ENE,72,6.0,7.0,96,0.00,,,0.00,Wunderground v.1.15,2013-05-25 12:33:00,
2013-05-25 07:38:00,53.9,52.8,30.32,ENE,67,4.0,7.0,96,0.00,,,0.00,Wunderground v.1.15,2013-05-25 12:38:00,
2013-05-25 07:43:00,54.6,52.6,30.33,ENE,65,7.0,9.0,93,0.00,,,0.00,Wunderground v.1.15,2013-05-25 12:43:00,
2013-05-25 07:48:00,55.6,51.8,30.33,NE,55,5.0,9.0,87,0.00,,,0.00,Wunderground v.1.15,2013-05-25 12:48:00,
2013-05-25 07:53:00,56.5,51.7,30.33,NE,42,4.0,6.0,84,0.00,,,0.00,Wunderground v.1.15,2013-05-25 12:53:00,
2013-05-25 07:58:00,57.5,52.7,30.33,ENE,72,6.0,6.0,84,0.00,,,0.00,Wunderground v.1.15,2013-05-25 12:58:00,
2013-05-25 08:03:00,58.5,52.4,30.33,ENE,69,3.0,6.0,80,0.00,,,0.00,Wunderground v.1.15,2013-05-25 13:03:00,
2013-05-25 08:08:00,59.3,53.1,30.33,ENE,76,2.0,6.0,80,0.00,,,0.00,Wunderground v.1.15,2013-05-25 13:08:00,
2013-05-25 08:13:00,60.2,53.0,30.33,ENE,74,6.0,6.0,77,0.00,,,0.00,Wunderground v.1.15,2013-05-25 13:13:00,
2013-05-25 08:18:00,60.9,53.6,30.32,East,92,2.0,7.0,77,0.00,,,0.00,Wunderground v.1.15,2013-05-25 13:18:00,
2013-05-25 08:23:00,61.4,51.9,30.33,ENE,78,2.0,5.0,71,0.00,,,0.00,Wunderground v.1.15,2013-05-25 13:23:00,
2013-05-25 08:28:00,62.0,54.0,30.32,ENE,76,2.0,6.0,75,0.00,,,0.00,Wunderground v.1.15,2013-05-25 13:28:00,
2013-05-25 08:33:00,62.8,53.3,30.33,ENE,74,4.0,6.0,71,0.00,,,0.00,Wunderground v.1.15,2013-05-25 13:33:00,
2013-05-25 08:38:00,63.3,53.3,30.33,ENE,66,3.0,6.0,70,0.00,,,0.00,Wunderground v.1.15,2013-05-25 13:38:00,
2013-05-25 08:43:00,63.8,53.4,30.33,ENE,67,5.0,7.0,69,0.00,,,0.00,Wunderground v.1.15,2013-05-25 13:43:00,
2013-05-25 08:48:00,64.3,52.7,30.33,ENE,76,7.0,11.0,66,0.00,,,0.00,Wunderground v.1.15,2013-05-25 13:48:00,
2013-05-25 08:53:00,64.7,53.1,30.32,East,82,2.0,9.0,66,0.00,,,0.00,Wunderground v.1.15,2013-05-25 13:53:00,
2013-05-25 08:58:00,64.9,53.7,30.33,East,84,4.0,12.0,67,0.00,,,0.00,Wunderground v.1.15,2013-05-25 13:58:00,
2013-05-25 09:03:00,65.2,54.0,30.33,East,86,2.0,7.0,67,0.00,,,0.00,Wunderground v.1.15,2013-05-25 14:03:00,
2013-05-25 09:08:00,65.7,53.2,30.32,ENE,76,5.0,8.0,64,0.00,,,0.00,Wunderground v.1.15,2013-05-25 14:08:00,
2013-05-25 09:13:00,65.9,54.2,30.32,East,100,4.0,5.0,66,0.00,,,0.00,Wunderground v.1.15,2013-05-25 14:13:00,
2013-05-25 09:18:00,66.6,53.2,30.33,West,279,2.0,7.0,62,0.00,,,0.00,Wunderground v.1.15,2013-05-25 14:18:00,
2013-05-25 09:23:00,67.4,54.8,30.33,ESE,119,4.0,8.0,64,0.00,,,0.00,Wunderground v.1.15,2013-05-25 14:23:00,
2013-05-25 09:28:00,68.0,53.6,30.33,East,81,2.0,8.0,60,0.00,,,0.00,Wunderground v.1.15,2013-05-25 14:28:00,
2013-05-25 09:33:00,68.3,52.5,30.33,West,279,1.0,5.0,57,0.00,,,0.00,Wunderground v.1.15,2013-05-25 14:33:00,
2013-05-25 09:38:00,68.6,54.6,30.33,East,82,2.0,7.0,61,0.00,,,0.00,Wunderground v.1.15,2013-05-25 14:38:00,
2013-05-25 09:43:00,69.0,53.6,30.32,ENE,76,7.0,7.0,58,0.00,,,0.00,Wunderground v.1.15,2013-05-25 14:43:00,
2013-05-25 09:48:00,69.4,53.0,30.32,East,85,5.0,8.0,56,0.00,,,0.00,Wunderground v.1.15,2013-05-25 14:48:00,
2013-05-25 09:53:00,69.4,54.4,30.32,ESE,113,2.0,6.0,59,0.00,,,0.00,Wunderground v.1.15,2013-05-25 14:53:00,
2013-05-25 09:58:00,69.7,55.2,30.32,East,92,3.0,7.0,60,0.00,,,0.00,Wunderground v.1.15,2013-05-25 14:58:00,
2013-05-25 10:03:00,70.3,53.9,30.32,East,101,5.0,6.0,56,0.00,,,0.00,Wunderground v.1.15,2013-05-25 15:03:00,
2013-05-25 10:08:00,70.8,53.8,30.32,ESE,115,4.0,7.0,55,0.00,,,0.00,Wunderground v.1.15,2013-05-25 15:08:00,
2013-05-25 10:13:00,71.4,54.9,30.31,ENE,72,3.0,9.0,56,0.00,,,0.00,Wunderground v.1.15,2013-05-25 15:13:00,
2013-05-25 10:18:00,71.5,55.0,30.31,ENE,68,7.0,11.0,56,0.00,,,0.00,Wunderground v.1.15,2013-05-25 15:18:00,
2013-05-25 10:23:00,71.9,54.3,30.31,East,80,1.0,10.0,54,0.00,,,0.00,Wunderground v.1.15,2013-05-25 15:23:00,
2013-05-25 10:28:00,72.3,53.7,30.31,ENE,76,10.0,10.0,52,0.00,,,0.00,Wunderground v.1.15,2013-05-25 15:28:00,
2013-05-25 10:33:00,72.6,53.4,30.30,West,279,4.0,10.0,51,0.00,,,0.00,Wunderground v.1.15,2013-05-25 15:33:00,
2013-05-25 10:38:00,72.7,51.9,30.30,ENE,76,2.0,12.0,48,0.00,,,0.00,Wunderground v.1.15,2013-05-25 15:38:00,
2013-05-25 10:43:00,72.7,53.0,30.30,ESE,109,6.0,7.0,50,0.00,,,0.00,Wunderground v.1.15,2013-05-25 15:43:00,
2013-05-25 10:48:00,72.8,52.0,30.30,SE,137,3.0,10.0,48,0.00,,,0.00,Wunderground v.1.15,2013-05-25 15:48:00,
2013-05-25 10:53:00,72.2,52.5,30.30,ENE,67,6.0,7.0,50,0.00,,,0.00,Wunderground v.1.15,2013-05-25 15:53:00,
2013-05-25 10:58:00,72.4,53.8,30.30,SE,128,8.0,11.0,52,0.00,,,0.00,Wunderground v.1.15,2013-05-25 15:58:00,
2013-05-25 11:03:00,72.6,51.8,30.30,SE,133,8.0,10.0,48,0.00,,,0.00,Wunderground v.1.15,2013-05-25 16:03:00,
2013-05-25 11:08:00,72.5,52.8,30.30,SE,134,4.0,10.0,50,0.00,,,0.00,Wunderground v.1.15,2013-05-25 16:08:00,
2013-05-25 11:13:00,72.6,52.3,30.29,ENE,69,10.0,10.0,49,0.00,,,0.00,Wunderground v.1.15,2013-05-25 16:13:00,
2013-05-25 11:18:00,73.1,54.9,30.29,NE,55,4.0,10.0,53,0.00,,,0.00,Wunderground v.1.15,2013-05-25 16:18:00,
2013-05-25 11:23:00,73.5,54.3,30.29,West,279,4.0,8.0,51,0.00,,,0.00,Wunderground v.1.15,2013-05-25 16:23:00,
2013-05-25 11:28:00,73.2,55.0,30.29,SE,140,6.0,11.0,53,0.00,,,0.00,Wunderground v.1.15,2013-05-25 16:28:00,
2013-05-25 11:33:00,73.1,54.9,30.29,West,279,5.0,7.0,53,0.00,,,0.00,Wunderground v.1.15,2013-05-25 16:33:00,
2013-05-25 11:38:00,73.3,53.0,30.29,East,99,2.0,9.0,49,0.00,,,0.00,Wunderground v.1.15,2013-05-25 16:38:00,
2013-05-25 11:43:00,73.7,53.9,30.29,SE,128,3.0,6.0,50,0.00,,,0.00,Wunderground v.1.15,2013-05-25 16:43:00,
2013-05-25 11:48:00,74.1,55.3,30.30,West,279,7.0,7.0,52,0.00,,,0.00,Wunderground v.1.15,2013-05-25 16:48:00,
2013-05-25 11:53:00,74.2,52.7,30.30,West,279,3.0,10.0,47,0.00,,,0.00,Wunderground v.1.15,2013-05-25 16:53:00,
2013-05-25 11:58:00,74.4,54.5,30.30,ESE,122,6.0,10.0,50,0.00,,,0.00,Wunderground v.1.15,2013-05-25 16:58:00,
2013-05-25 12:03:00,74.9,53.9,30.30,SE,131,6.0,9.0,48,0.00,,,0.00,Wunderground v.1.15,2013-05-25 17:03:00,
2013-05-25 12:08:00,75.1,54.6,30.30,West,279,2.0,9.0,49,0.00,,,0.00,Wunderground v.1.15,2013-05-25 17:08:00,
2013-05-25 12:13:00,75.3,54.8,30.30,SE,127,3.0,4.0,49,0.00,,,0.00,Wunderground v.1.15,2013-05-25 17:13:00,
2013-05-25 12:18:00,75.5,55.0,30.30,ESE,117,3.0,9.0,49,0.00,,,0.00,Wunderground v.1.15,2013-05-25 17:18:00,
2013-05-25 12:23:00,75.9,54.2,30.30,East,84,4.0,7.0,47,0.00,,,0.00,Wunderground v.1.15,2013-05-25 17:23:00,
2013-05-25 12:29:00,76.2,52.1,30.29,SSE,153,5.0,7.0,43,0.00,,,0.00,Wunderground v.1.15,2013-05-25 17:29:00,
2013-05-25 12:34:00,76.1,51.3,30.29,West,279,2.0,8.0,42,0.00,,,0.00,Wunderground v.1.15,2013-05-25 17:34:00,
2013-05-25 12:39:00,76.2,53.9,30.29,ENE,69,5.0,8.0,46,0.00,,,0.00,Wunderground v.1.15,2013-05-25 17:39:00,
2013-05-25 12:44:00,76.4,54.1,30.28,NE,53,4.0,8.0,46,0.00,,,0.00,Wunderground v.1.15,2013-05-25 17:44:00,
2013-05-25 12:49:00,76.6,52.4,30.28,West,279,2.0,8.0,43,0.00,,,0.00,Wunderground v.1.15,2013-05-25 17:49:00,
2013-05-25 12:54:00,76.6,51.8,30.28,NNW,346,0.0,5.0,42,0.00,,,0.00,Wunderground v.1.15,2013-05-25 17:54:00,
2013-05-25 12:59:00,76.5,53.6,30.28,ENE,75,5.0,7.0,45,0.00,,,0.00,Wunderground v.1.15,2013-05-25 17:59:00,
2013-05-25 13:04:00,76.9,54.5,30.27,West,279,5.0,11.0,46,0.00,,,0.00,Wunderground v.1.15,2013-05-25 18:04:00,
2013-05-25 13:09:00,77.3,52.4,30.27,East,91,2.0,11.0,42,0.00,,,0.00,Wunderground v.1.15,2013-05-25 18:09:00,
2013-05-25 13:14:00,77.7,53.4,30.27,East,93,1.0,11.0,43,0.00,,,0.00,Wunderground v.1.15,2013-05-25 18:14:00,
2013-05-25 13:19:00,77.7,52.8,30.27,SE,135,4.0,11.0,42,0.00,,,0.00,Wunderground v.1.15,2013-05-25 18:19:00,
2013-05-25 13:24:00,77.7,51.5,30.26,ESE,116,3.0,7.0,40,0.00,,,0.00,Wunderground v.1.15,2013-05-25 18:24:00,
2013-05-25 13:29:00,77.7,52.1,30.26,East,84,2.0,7.0,41,0.00,,,0.00,Wunderground v.1.15,2013-05-25 18:29:00,
2013-05-25 13:34:00,77.8,52.2,30.26,ESE,121,4.0,7.0,41,0.00,,,0.00,Wunderground v.1.15,2013-05-25 18:34:00,
2013-05-25 13:39:00,78.0,52.4,30.25,ENE,72,5.0,7.0,41,0.00,,,0.00,Wunderground v.1.15,2013-05-25 18:39:00,
2013-05-25 13:44:00,77.8,52.2,30.25,ESE,119,2.0,12.0,41,0.00,,,0.00,Wunderground v.1.15,2013-05-25 18:44:00,
2013-05-25 13:49:00,77.7,52.8,30.24,West,279,11.0,12.0,42,0.00,,,0.00,Wunderground v.1.15,2013-05-25 18:49:00,
2013-05-25 13:54:00,77.9,53.6,30.24,ESE,115,4.0,12.0,43,0.00,,,0.00,Wunderground v.1.15,2013-05-25 18:54:00,
2013-05-25 13:59:00,77.9,53.6,30.24,SE,138,7.0,13.0,43,0.00,,,0.00,Wunderground v.1.15,2013-05-25 18:59:00,
2013-05-25 14:04:00,78.0,52.4,30.25,ENE,78,1.0,10.0,41,0.00,,,0.00,Wunderground v.1.15,2013-05-25 19:04:00,
2013-05-25 14:09:00,78.2,53.9,30.25,East,80,1.0,10.0,43,0.00,,,0.00,Wunderground v.1.15,2013-05-25 19:09:00,
2013-05-25 14:14:00,78.4,54.0,30.25,East,89,4.0,7.0,43,0.00,,,0.00,Wunderground v.1.15,2013-05-25 19:14:00,
2013-05-25 14:19:00,78.2,53.2,30.25,East,80,2.0,7.0,42,0.00,,,0.00,Wunderground v.1.15,2013-05-25 19:19:00,
2013-05-25 14:24:00,77.7,51.5,30.25,West,279,6.0,8.0,40,0.00,,,0.00,Wunderground v.1.15,2013-05-25 19:24:00,
2013-05-25 14:29:00,77.6,54.0,30.25,ENE,75,1.0,10.0,44,0.00,,,0.00,Wunderground v.1.15,2013-05-25 19:29:00,
2013-05-25 14:34:00,77.8,52.2,30.25,West,279,2.0,5.0,41,0.00,,,0.00,Wunderground v.1.15,2013-05-25 19:34:00,
2013-05-25 14:39:00,77.8,53.5,30.25,East,95,0.0,5.0,43,0.00,,,0.00,Wunderground v.1.15,2013-05-25 19:39:00,
2013-05-25 14:44:00,77.3,52.4,30.26,North,352,2.0,4.0,42,0.00,,,0.00,Wunderground v.1.15,2013-05-25 19:44:00,
2013-05-25 14:49:00,76.8,51.3,30.25,West,279,0.0,5.0,41,0.00,,,0.00,Wunderground v.1.15,2013-05-25 19:49:00,
2013-05-25 14:54:00,76.7,53.1,30.25,East,92,3.0,4.0,44,0.00,,,0.00,Wunderground v.1.15,2013-05-25 19:54:00,
2013-05-25 14:59:00,76.8,52.0,30.25,ENE,63,7.0,10.0,42,0.00,,,0.00,Wunderground v.1.15,2013-05-25 19:59:00,
2013-05-25 15:04:00,76.7,56.1,30.25,NE,43,6.0,10.0,49,0.00,,,0.00,Wunderground v.1.15,2013-05-25 20:04:00,
2013-05-25 15:09:00,76.6,53.1,30.25,ENE,63,6.0,10.0,44,0.00,,,0.00,Wunderground v.1.15,2013-05-25 20:09:00,
2013-05-25 15:14:00,76.5,51.0,30.24,East,94,5.0,6.0,41,0.00,,,0.00,Wunderground v.1.15,2013-05-25 20:14:00,
2013-05-25 15:19:00,76.7,54.4,30.24,West,279,0.0,6.0,46,0.00,,,0.00,Wunderground v.1.15,2013-05-25 20:19:00,
2013-05-25 15:24:00,76.7,53.1,30.23,NE,44,6.0,10.0,44,0.00,,,0.00,Wunderground v.1.15,2013-05-25 20:24:00,
2013-05-25 15:29:00,76.2,55.6,30.23,NE,53,11.0,12.0,49,0.00,,,0.00,Wunderground v.1.15,2013-05-25 20:29:00,
2013-05-25 15:34:00,75.7,54.6,30.23,NE,56,10.0,11.0,48,0.00,,,0.00,Wunderground v.1.15,2013-05-25 20:34:00,
2013-05-25 15:39:00,75.6,55.6,30.23,NE,56,12.0,12.0,50,0.00,,,0.00,Wunderground v.1.15,2013-05-25 20:39:00,
2013-05-25 15:44:00,75.7,55.7,30.22,NE,56,13.0,13.0,50,0.00,,,0.00,Wunderground v.1.15,2013-05-25 20:44:00,
2013-05-25 15:49:00,76.1,56.7,30.22,NNE,26,7.0,13.0,51,0.00,,,0.00,Wunderground v.1.15,2013-05-25 20:49:00,
2013-05-25 15:54:00,76.3,55.7,30.22,NE,53,10.0,14.0,49,0.00,,,0.00,Wunderground v.1.15,2013-05-25 20:54:00,
2013-05-25 15:59:00,76.2,53.9,30.22,NE,34,6.0,14.0,46,0.00,,,0.00,Wunderground v.1.15,2013-05-25 20:59:00,
2013-05-25 16:04:00,76.1,55.5,30.21,NE,42,8.0,14.0,49,0.00,,,0.00,Wunderground v.1.15,2013-05-25 21:04:00,
2013-05-25 16:09:00,76.2,56.2,30.21,ENE,60,13.0,15.0,50,0.00,,,0.00,Wunderground v.1.15,2013-05-25 21:09:00,
2013-05-25 16:14:00,76.4,56.4,30.21,ENE,61,7.0,15.0,50,0.00,,,0.00,Wunderground v.1.15,2013-05-25 21:14:00,
2013-05-25 16:19:00,76.8,54.5,30.21,ENE,60,10.0,15.0,46,0.00,,,0.00,Wunderground v.1.15,2013-05-25 21:19:00,
2013-05-25 16:24:00,77.1,54.7,30.22,NE,55,3.0,14.0,46,0.00,,,0.00,Wunderground v.1.15,2013-05-25 21:24:00,
2013-05-25 16:29:00,77.5,54.5,30.22,NE,54,6.0,14.0,45,0.00,,,0.00,Wunderground v.1.15,2013-05-25 21:29:00,
2013-05-25 16:34:00,77.6,53.3,30.22,ENE,61,11.0,14.0,43,0.00,,,0.00,Wunderground v.1.15,2013-05-25 21:34:00,
2013-05-25 16:39:00,77.5,53.9,30.22,ENE,62,10.0,14.0,44,0.00,,,0.00,Wunderground v.1.15,2013-05-25 21:39:00,
2013-05-25 16:44:00,77.4,53.8,30.21,ENE,66,7.0,13.0,44,0.00,,,0.00,Wunderground v.1.15,2013-05-25 21:44:00,
2013-05-25 16:49:00,77.4,55.0,30.21,NE,55,6.0,13.0,46,0.00,,,0.00,Wunderground v.1.15,2013-05-25 21:49:00,
2013-05-25 16:54:00,77.6,55.2,30.21,NE,37,7.0,10.0,46,0.00,,,0.00,Wunderground v.1.15,2013-05-25 21:54:00,
2013-05-25 16:59:00,77.5,55.1,30.20,ENE,62,11.0,13.0,46,0.00,,,0.00,Wunderground v.1.15,2013-05-25 21:59:00,
2013-05-25 17:04:00,77.5,53.2,30.20,ENE,64,9.0,14.0,43,0.00,,,0.00,Wunderground v.1.15,2013-05-25 22:04:00,
2013-05-25 17:09:00,77.2,53.6,30.20,ENE,57,5.0,14.0,44,0.00,,,0.00,Wunderground v.1.15,2013-05-25 22:09:00,
2013-05-25 17:14:00,76.9,54.5,30.20,West,279,5.0,11.0,46,0.00,,,0.00,Wunderground v.1.15,2013-05-25 22:14:00,
2013-05-25 17:19:00,76.6,55.4,30.19,West,279,4.0,11.0,48,0.00,,,0.00,Wunderground v.1.15,2013-05-25 22:19:00,
2013-05-25 17:24:00,76.2,57.8,30.18,ESE,111,4.0,11.0,53,0.00,,,0.00,Wunderground v.1.15,2013-05-25 22:24:00,
2013-05-25 17:29:00,76.0,56.6,30.17,East,84,4.0,11.0,51,0.00,,,0.00,Wunderground v.1.15,2013-05-25 22:29:00,
2013-05-25 17:34:00,75.8,55.8,30.17,West,279,11.0,12.0,50,0.00,,,0.00,Wunderground v.1.15,2013-05-25 22:34:00,
2013-05-25 17:39:00,75.6,55.6,30.17,ENE,76,9.0,13.0,50,0.00,,,0.00,Wunderground v.1.15,2013-05-25 22:39:00,
2013-05-25 17:44:00,75.3,57.0,30.17,East,85,6.0,12.0,53,0.00,,,0.00,Wunderground v.1.15,2013-05-25 22:44:00,
2013-05-25 17:49:00,74.9,56.6,30.16,ENE,78,9.0,12.0,53,0.00,,,0.00,Wunderground v.1.15,2013-05-25 22:49:00,
2013-05-25 17:54:00,74.3,55.0,30.17,East,84,1.0,7.0,51,0.00,,,0.00,Wunderground v.1.15,2013-05-25 22:54:00,
2013-05-25 17:59:00,74.0,54.7,30.18,ESE,103,2.0,10.0,51,0.00,,,0.00,Wunderground v.1.15,2013-05-25 22:59:00,
2013-05-25 18:04:00,73.7,55.5,30.17,ESE,109,4.0,5.0,53,0.00,,,0.00,Wunderground v.1.15,2013-05-25 23:04:00,
2013-05-25 18:09:00,73.6,57.9,30.17,East,88,1.0,6.0,58,0.00,,,0.00,Wunderground v.1.15,2013-05-25 23:09:00,
2013-05-25 18:14:00,73.3,55.6,30.18,West,279,4.0,5.0,54,0.00,,,0.00,Wunderground v.1.15,2013-05-25 23:14:00,
2013-05-25 18:19:00,72.9,55.8,30.17,West,279,0.0,5.0,55,0.00,,,0.00,Wunderground v.1.15,2013-05-25 23:19:00,
2013-05-25 18:24:00,72.7,58.0,30.17,ENE,74,0.0,4.0,60,0.00,,,0.00,Wunderground v.1.15,2013-05-25 23:24:00,
2013-05-25 18:29:00,72.4,58.2,30.17,ENE,73,4.0,4.0,61,0.00,,,0.00,Wunderground v.1.15,2013-05-25 23:29:00,
2013-05-25 18:34:00,72.2,57.1,30.17,ENE,70,2.0,5.0,59,0.00,,,0.00,Wunderground v.1.15,2013-05-25 23:34:00,
2013-05-25 18:39:00,71.9,56.3,30.17,ENE,71,4.0,5.0,58,0.00,,,0.00,Wunderground v.1.15,2013-05-25 23:39:00,
2013-05-25 18:44:00,71.7,58.4,30.16,ENE,72,1.0,5.0,63,0.00,,,0.00,Wunderground v.1.15,2013-05-25 23:44:00,
2013-05-25 18:49:00,71.5,58.2,30.16,East,86,4.0,5.0,63,0.00,,,0.00,Wunderground v.1.15,2013-05-25 23:49:00,
2013-05-25 18:54:00,71.4,57.7,30.15,West,279,4.0,6.0,62,0.00,,,0.00,Wunderground v.1.15,2013-05-25 23:54:00,
2013-05-25 18:59:00,71.2,58.8,30.15,East,99,3.0,8.0,65,0.00,,,0.00,Wunderground v.1.15,2013-05-25 23:59:00,
2013-05-25 19:04:00,70.9,59.0,30.15,East,94,2.0,5.0,66,0.00,,,0.00,Wunderground v.1.15,2013-05-26 00:04:00,
2013-05-25 19:09:00,70.6,58.7,30.14,ESE,107,3.0,7.0,66,0.00,,,0.00,Wunderground v.1.15,2013-05-26 00:09:00,
2013-05-25 19:14:00,70.3,58.0,30.15,ESE,106,0.0,7.0,65,0.00,,,0.00,Wunderground v.1.15,2013-05-26 00:14:00,
2013-05-25 19:19:00,69.8,57.1,30.15,East,88,0.0,7.0,64,0.00,,,0.00,Wunderground v.1.15,2013-05-26 00:19:00,
2013-05-25 19:24:00,69.4,58.8,30.15,East,86,1.0,2.0,69,0.00,,,0.00,Wunderground v.1.15,2013-05-26 00:24:00,
2013-05-25 19:29:00,69.0,58.4,30.15,East,79,3.0,6.0,69,0.00,,,0.00,Wunderground v.1.15,2013-05-26 00:29:00,
2013-05-25 19:34:00,68.5,57.9,30.15,ENE,76,5.0,8.0,69,0.00,,,0.00,Wunderground v.1.15,2013-05-26 00:34:00,
2013-05-25 19:39:00,68.0,57.0,30.15,ENE,72,6.0,9.0,68,0.00,,,0.00,Wunderground v.1.15,2013-05-26 00:39:00,
2013-05-25 19:44:00,67.7,57.6,30.15,ENE,72,6.0,7.0,70,0.00,,,0.00,Wunderground v.1.15,2013-05-26 00:44:00,
2013-05-25 19:49:00,67.4,58.1,30.16,West,279,5.0,7.0,72,0.00,,,0.00,Wunderground v.1.15,2013-05-26 00:49:00,
2013-05-25 19:55:00,66.9,57.2,30.15,ENE,65,7.0,7.0,71,0.00,,,0.00,Wunderground v.1.15,2013-05-26 00:55:00,
2013-05-25 20:00:00,66.3,56.6,30.15,ENE,67,9.0,9.0,71,0.00,,,0.00,Wunderground v.1.15,2013-05-26 01:00:00,
2013-05-25 20:04:00,65.8,56.9,30.15,ENE,75,8.0,10.0,73,0.00,,,0.00,Wunderground v.1.15,2013-05-26 01:04:00,
2013-05-25 20:09:00,65.3,57.2,30.15,ENE,69,10.0,10.0,75,0.00,,,0.00,Wunderground v.1.15,2013-05-26 01:09:00,
2013-05-25 20:15:00,64.7,57.0,30.14,ENE,68,10.0,11.0,76,0.00,,,0.00,Wunderground v.1.15,2013-05-26 01:15:00,
2013-05-25 20:20:00,64.2,56.1,30.14,ENE,67,10.0,10.0,75,0.00,,,0.00,Wunderground v.1.15,2013-05-26 01:20:00,
2013-05-25 20:25:00,63.8,56.8,30.14,ENE,72,10.0,11.0,78,0.00,,,0.00,Wunderground v.1.15,2013-05-26 01:25:00,
2013-05-25 20:30:00,63.4,56.4,30.14,East,79,10.0,10.0,78,0.00,,,0.00,Wunderground v.1.15,2013-05-26 01:30:00,
2013-05-25 20:34:00,63.1,55.8,30.14,East,82,9.0,10.0,77,0.00,,,0.00,Wunderground v.1.15,2013-05-26 01:34:00,
2013-05-25 20:39:00,62.8,56.2,30.14,East,84,5.0,10.0,79,0.00,,,0.00,Wunderground v.1.15,2013-05-26 01:39:00,
2013-05-25 20:44:00,62.6,55.6,30.14,East,85,2.0,8.0,78,0.00,,,0.00,Wunderground v.1.15,2013-05-26 01:44:00,
2013-05-25 20:49:00,62.4,56.1,30.13,West,279,4.0,8.0,80,0.00,,,0.00,Wunderground v.1.15,2013-05-26 01:49:00,
2013-05-25 20:55:00,62.1,55.5,30.13,East,84,6.0,7.0,79,0.00,,,0.00,Wunderground v.1.15,2013-05-26 01:55:00,
2013-05-25 21:00:00,61.9,56.0,30.14,East,84,4.0,5.0,81,0.00,,,0.00,Wunderground v.1.15,2013-05-26 02:00:00,
2013-05-25 21:05:00,61.7,55.8,30.13,East,87,1.0,5.0,81,0.00,,,0.00,Wunderground v.1.15,2013-05-26 02:05:00,
2013-05-25 21:10:00,61.6,56.0,30.14,East,86,1.0,2.0,82,0.00,,,0.00,Wunderground v.1.15,2013-05-26 02:10:00,
2013-05-25 21:15:00,61.4,56.2,30.14,East,87,2.0,2.0,83,0.00,,,0.00,Wunderground v.1.15,2013-05-26 02:15:00,
2013-05-25 21:20:00,61.2,55.3,30.14,East,92,3.0,3.0,81,0.00,,,0.00,Wunderground v.1.15,2013-05-26 02:20:00,
2013-05-25 21:25:00,61.1,55.6,30.15,ESE,113,6.0,7.0,82,0.00,,,0.00,Wunderground v.1.15,2013-05-26 02:25:00,
2013-05-25 21:30:00,60.9,55.4,30.15,West,279,6.0,6.0,82,0.00,,,0.00,Wunderground v.1.15,2013-05-26 02:30:00,
2013-05-25 21:35:00,60.7,55.5,30.15,ESE,112,6.0,7.0,83,0.00,,,0.00,Wunderground v.1.15,2013-05-26 02:35:00,
2013-05-25 21:40:00,60.5,55.3,30.15,ESE,107,5.0,6.0,83,0.00,,,0.00,Wunderground v.1.15,2013-05-26 02:40:00,
2013-05-25 21:45:00,60.4,55.2,30.16,ESE,115,9.0,10.0,83,0.00,,,0.00,Wunderground v.1.15,2013-05-26 02:45:00,
2013-05-25 21:50:00,60.2,55.0,30.15,ESE,120,11.0,11.0,83,0.00,,,0.00,Wunderground v.1.15,2013-05-26 02:50:00,
2013-05-25 21:55:00,60.0,54.5,30.16,ESE,121,10.0,11.0,82,0.00,,,0.00,Wunderground v.1.15,2013-05-26 02:55:00,
2013-05-25 22:00:00,59.9,54.7,30.16,ESE,117,9.0,10.0,83,0.00,,,0.00,Wunderground v.1.15,2013-05-26 03:00:00,
2013-05-25 22:05:00,59.8,54.3,30.16,ESE,113,5.0,10.0,82,0.00,,,0.00,Wunderground v.1.15,2013-05-26 03:05:00,
2013-05-25 22:10:00,59.6,54.1,30.17,ESE,113,7.0,7.0,82,0.00,,,0.00,Wunderground v.1.15,2013-05-26 03:10:00,
2013-05-25 22:15:00,59.6,54.8,30.17,ESE,115,7.0,10.0,84,0.00,,,0.00,Wunderground v.1.15,2013-05-26 03:15:00,
2013-05-25 22:20:00,59.5,54.7,30.16,ESE,119,8.0,8.0,84,0.00,,,0.00,Wunderground v.1.15,2013-05-26 03:20:00,
2013-05-25 22:25:00,59.4,54.2,30.17,ESE,113,5.0,9.0,83,0.00,,,0.00,Wunderground v.1.15,2013-05-26 03:25:00,
2013-05-25 22:30:00,59.4,54.9,30.17,ESE,115,6.0,8.0,85,0.00,,,0.00,Wunderground v.1.15,2013-05-26 03:30:00,
2013-05-25 22:35:00,59.2,54.4,30.17,ESE,117,7.0,9.0,84,0.00,,,0.00,Wunderground v.1.15,2013-05-26 03:35:00,
2013-05-25 22:40:00,59.1,53.9,30.16,ESE,121,7.0,8.0,83,0.00,,,0.00,Wunderground v.1.15,2013-05-26 03:40:00,
2013-05-25 22:45:00,59.1,54.3,30.16,ESE,121,8.0,9.0,84,0.00,,,0.00,Wunderground v.1.15,2013-05-26 03:45:00,
2013-05-25 22:50:00,59.1,54.6,30.17,West,279,7.0,8.0,85,0.00,,,0.00,Wunderground v.1.15,2013-05-26 03:50:00,
2013-05-25 22:55:00,59.0,54.5,30.17,ESE,119,9.0,9.0,85,0.00,,,0.00,Wunderground v.1.15,2013-05-26 03:55:00,
2013-05-25 23:00:00,59.0,54.8,30.17,West,279,10.0,11.0,86,0.00,,,0.00,Wunderground v.1.15,2013-05-26 04:00:00,
2013-05-25 23:01:00,59.0,54.8,30.17,SE,126,9.0,11.0,86,0.00,,,0.00,Wunderground v.1.15,2013-05-26 04:01:00,
2013-05-25 23:06:00,58.9,54.4,30.16,ESE,121,10.0,11.0,85,0.00,,,0.00,Wunderground v.1.15,2013-05-26 04:06:00,
2013-05-25 23:11:00,58.8,54.3,30.16,SE,125,11.0,11.0,85,0.00,,,0.00,Wunderground v.1.15,2013-05-26 04:11:00,
2013-05-25 23:16:00,58.7,54.5,30.16,West,279,12.0,12.0,86,0.00,,,0.00,Wunderground v.1.15,2013-05-26 04:16:00,
2013-05-25 23:21:00,58.7,54.5,30.16,SE,124,9.0,11.0,86,0.00,,,0.00,Wunderground v.1.15,2013-05-26 04:21:00,
2013-05-25 23:26:00,58.6,54.4,30.17,ESE,115,4.0,11.0,86,0.00,,,0.00,Wunderground v.1.15,2013-05-26 04:26:00,
2013-05-25 23:31:00,58.7,55.2,30.17,ESE,106,2.0,6.0,88,0.00,,,0.00,Wunderground v.1.15,2013-05-26 04:31:00,
2013-05-25 23:36:00,58.8,54.6,30.17,East,99,0.0,6.0,86,0.00,,,0.00,Wunderground v.1.15,2013-05-26 04:36:00,
2013-05-25 23:41:00,59.0,55.1,30.16,West,279,0.0,2.0,87,0.00,,,0.00,Wunderground v.1.15,2013-05-26 04:41:00,
2013-05-25 23:46:00,59.3,55.7,30.17,East,90,2.0,2.0,88,0.00,,,0.00,Wunderground v.1.15,2013-05-26 04:46:00,
2013-05-25 23:51:00,59.4,55.8,30.16,East,83,7.0,7.0,88,0.00,,,0.00,Wunderground v.1.15,2013-05-26 04:51:00,
2013-05-25 23:56:00,59.6,55.7,30.17,East,84,5.0,7.0,87,0.00,,,0.00,Wunderground v.1.15,2013-05-26 04:56:00,